Location: Friaudour
(46.0460°N, 1.2873°E)
Time: 14:12:04
(UTC+00:00)

Spot 4 Rocket - Pass Details

Date: 24 October 2020
Orbit: 776 x 781 km, 98.7° (Epoch: 29 November)

Event Time Altitude Azimuth Distance (km) Brightness Sun altitude
Rises 01:56:02 0° 29° (NNE) 3,268 7.9 -45.2°
Reaches altitude 10° 01:59:08 10° 48° (NE) 2,335 7.1 -44.8°
Enters shadow 01:59:29 11° 51° (NE) 2,249 7.0 -44.7°
